Kiev, Ukraine

7:42 AM EET on March 25, 2017 (GMT +0200)
Kiev

Weather History for 33345 - November, 2013

Change the Weather History Date:

Thursday, November 7, 2013

  Actual Average Record
Temperature  
Mean Temperature 42 °F -  
Max Temperature 46 °F - - ()
Min Temperature 37 °F - - ()
Degree Days  
Heating Degree Days 24    
Moisture  
Dew Point 40 °F    
Average Humidity 89    
Maximum Humidity 100    
Minimum Humidity 74    
Precipitation  
Precipitation 0.00 in 0.07 in - ()
Sea Level Pressure  
Sea Level Pressure 29.75 in    
Wind  
Wind Speed 8 mph ()    
Max Wind Speed 16 mph    
Max Gust Speed -    
Visibility 6.3 miles    
Events Rain    
T = Trace of Precipitation, MM = Missing Value Source: Averaged Metar Reports

Daily Weather History Graph

Daily Weather History Graph

Search for Another Location

Airport or City:

Trip Planner

Search our weather history database for the weather conditions in past years. The results will help you decide how hot, cold, wet, or windy it might be!

Date:

Astronomy

Nov. 07, 2013 Rise Set
Actual Time 6:58 AM EET 4:24 PM EET
Civil Twilight 6:23 AM EET 4:59 PM EET
Nautical Twilight 5:44 AM EET 5:38 PM EET
Astronomical Twilight 5:06 AM EET 6:16 PM EET
Moon 10:57 AM EET (11/7) 8:07 PM EET (11/7)
Length of Visible Light 10h 35m
Length of Day
9h 25m
Waxing Crescent, 19% of the Moon is Illuminated
Nov 7
Waxing Crescent
Nov 10
First Quarter
Nov 17
Full
Nov 25
Last Quarter
Dec 3
New

Hourly Weather History & Observations

Time (EET) Temp. Windchill Dew Point Humidity Pressure Visibility Wind Dir Wind Speed Gust Speed Precip Events Conditions
12:00 AM 46.4 °F 42.0 °F 44.6 °F 93% 29.59 in 6.2 mi West 8.9 mph - N/A Rain Light Rain Showers
12:30 AM 46.4 °F 40.5 °F 42.8 °F 87% 29.59 in 6.2 mi WNW 13.4 mph - N/A Rain Light Rain Showers
1:00 AM 44.6 °F 38.9 °F 42.8 °F 93% 29.62 in 6.2 mi West 11.2 mph - N/A Rain Light Rain Showers
1:30 AM 44.6 °F 39.8 °F 42.8 °F 93% 29.62 in 6.2 mi West 8.9 mph - N/A Rain Light Rain
2:00 AM 44 °F - 41 °F 87% 29.65 in 2 mi West 4.5 mph - -   Mist
2:00 AM 44.6 °F 40.8 °F 42.8 °F 93% 29.62 in 6.2 mi West 6.7 mph - N/A   Overcast
2:30 AM 44.6 °F 40.8 °F 42.8 °F 93% 29.62 in - West 6.7 mph - N/A   Clear
3:00 AM 44.6 °F 39.8 °F 42.8 °F 93% 29.62 in - West 8.9 mph - N/A   Clear
3:30 AM 44.6 °F 39.8 °F 41.0 °F 87% 29.62 in - West 8.9 mph - N/A   Clear
4:00 AM 42.8 °F 38.7 °F 41.0 °F 93% 29.62 in - West 6.7 mph - N/A   Clear
4:30 AM 42.8 °F 38.7 °F 41.0 °F 93% 29.65 in - West 6.7 mph - N/A   Clear
5:00 AM 43 °F - 40 °F 87% 29.66 in 2 mi WNW 4.5 mph - -   Mist
5:00 AM 42.8 °F 38.7 °F 41.0 °F 93% 29.65 in - West 6.7 mph - N/A   Clear
5:30 AM 42.8 °F 38.7 °F 41.0 °F 93% 29.65 in 6.2 mi West 6.7 mph - N/A   Mostly Cloudy
6:00 AM 42.8 °F 38.7 °F 41.0 °F 93% 29.65 in 6.2 mi West 6.7 mph - N/A   Mostly Cloudy
6:30 AM 42.8 °F 38.7 °F 41.0 °F 93% 29.65 in 6.2 mi West 6.7 mph - N/A   Mostly Cloudy
7:00 AM 42.8 °F 37.6 °F 41.0 °F 93% 29.65 in 5.0 mi West 8.9 mph - N/A   Mostly Cloudy
7:30 AM 42.8 °F 38.7 °F 41.0 °F 93% 29.68 in 4.3 mi West 6.7 mph - N/A   Mostly Cloudy
8:00 AM 43 °F - 41 °F 88% 29.70 in 2 mi WNW 6.7 mph - -   Mist
8:00 AM 42.8 °F 37.6 °F 41.0 °F 93% 29.68 in 5.0 mi West 8.9 mph - N/A   Mostly Cloudy
8:30 AM 42.8 °F 37.6 °F 41.0 °F 93% 29.68 in 5.6 mi West 8.9 mph - N/A   Mostly Cloudy
9:00 AM 42.8 °F 36.7 °F 42.8 °F 100% 29.68 in 5.6 mi West 11.2 mph - N/A   Mostly Cloudy
9:30 AM 44.6 °F 38.9 °F 42.8 °F 93% 29.68 in 6.2 mi WNW 11.2 mph - N/A   Mostly Cloudy
10:00 AM 44.6 °F 38.2 °F 41.0 °F 87% 29.71 in 6.2 mi West 13.4 mph - N/A   Mostly Cloudy
10:30 AM 44.6 °F 38.2 °F 41.0 °F 87% 29.71 in 6.2 mi West 13.4 mph - N/A   Mostly Cloudy
11:00 AM 45 °F - 40 °F 77% 29.75 in 12 mi WNW 6.7 mph - -   Overcast
11:00 AM 44.6 °F 38.9 °F 41.0 °F 87% 29.71 in 6.2 mi West 11.2 mph - N/A   Mostly Cloudy
11:30 AM 44.6 °F 38.9 °F 41.0 °F 87% 29.74 in 6.2 mi WNW 11.2 mph - N/A   Mostly Cloudy
12:00 PM 44.6 °F 37.6 °F 41.0 °F 87% 29.74 in 6.2 mi WNW 15.7 mph - N/A   Overcast
12:30 PM 44.6 °F 38.2 °F 41.0 °F 87% 29.74 in 6.2 mi NW 13.4 mph - N/A Rain Light Rain
1:00 PM 44.6 °F 38.9 °F 41.0 °F 87% 29.74 in 6.2 mi WNW 11.2 mph - N/A   Overcast
1:30 PM 44.6 °F 38.9 °F 41.0 °F 87% 29.77 in 6.2 mi WNW 11.2 mph - N/A   Overcast
2:00 PM 45 °F - 40 °F 75% 29.80 in 12 mi WNW 6.7 mph - -   Mostly Cloudy
2:00 PM 46.4 °F 41.2 °F 41.0 °F 81% 29.77 in 6.2 mi WNW 11.2 mph - N/A   Overcast
2:30 PM 44.6 °F 38.9 °F 41.0 °F 87% 29.80 in 6.2 mi WNW 11.2 mph - N/A   Overcast
3:00 PM 44.6 °F 38.9 °F 41.0 °F 87% 29.80 in 6.2 mi WNW 11.2 mph - N/A   Mostly Cloudy
3:30 PM 44.6 °F 39.8 °F 39.2 °F 81% 29.80 in 6.2 mi WNW 8.9 mph - N/A   Mostly Cloudy
4:00 PM 44.6 °F 39.8 °F 39.2 °F 81% 29.80 in 6.2 mi West 8.9 mph - N/A   Mostly Cloudy
4:30 PM 44.6 °F 39.8 °F 39.2 °F 81% 29.83 in 6.2 mi West 8.9 mph - N/A   Mostly Cloudy
5:00 PM 45 °F - 39 °F 74% 29.85 in 6 mi West 6.7 mph - -   Overcast
5:00 PM 44.6 °F 38.9 °F 39.2 °F 81% 29.83 in 6.2 mi West 11.2 mph - N/A   Mostly Cloudy
5:30 PM 44.6 °F 38.9 °F 39.2 °F 81% 29.83 in 6.2 mi WNW 11.2 mph - N/A   Mostly Cloudy
6:00 PM 42.8 °F 37.6 °F 37.4 °F 81% 29.86 in 6.2 mi WNW 8.9 mph - N/A   Mostly Cloudy
6:30 PM 41.0 °F 35.4 °F 37.4 °F 87% 29.86 in 6.2 mi West 8.9 mph - N/A   Mostly Cloudy
7:00 PM 41.0 °F 36.5 °F 37.4 °F 87% 29.86 in 6.2 mi West 6.7 mph - N/A   Mostly Cloudy
7:30 PM 41.0 °F 36.5 °F 37.4 °F 87% 29.89 in 6.2 mi West 6.7 mph - N/A   Mostly Cloudy
8:00 PM 43 °F - 38 °F 74% 29.91 in 12 mi West 2.2 mph - -   Partly Cloudy
8:00 PM 41.0 °F 38.1 °F 37.4 °F 87% 29.89 in 6.2 mi West 4.5 mph - N/A   Mostly Cloudy
8:30 PM 41.0 °F 38.1 °F 37.4 °F 87% 29.89 in 6.2 mi WSW 4.5 mph - N/A   Mostly Cloudy
9:00 PM 39.2 °F 36.0 °F 37.4 °F 93% 29.89 in 6.2 mi SW 4.5 mph - N/A   Mostly Cloudy
9:30 PM 37.4 °F 33.9 °F 37.4 °F 100% 29.89 in 5.6 mi WSW 4.5 mph - N/A   Unknown
10:00 PM 37.4 °F 33.9 °F 37.4 °F 100% 29.89 in 5.6 mi WSW 4.5 mph - N/A   Unknown
10:30 PM 37.4 °F 33.9 °F 37.4 °F 100% 29.89 in 6.2 mi WSW 4.5 mph - N/A   Partly Cloudy
11:00 PM 40 °F - 37 °F 84% 29.94 in 12 mi WSW 6.7 mph - -   Partly Cloudy
11:00 PM 37.4 °F 33.9 °F 37.4 °F 100% 29.92 in 6.2 mi WSW 4.5 mph - N/A   Mostly Cloudy
11:30 PM 39.2 °F 36.0 °F 37.4 °F 93% 29.92 in 6.2 mi WSW 4.5 mph - N/A   Mostly Cloudy